Location: Clanezzo
(45.7500°N, 9.6000°E)
Time: 10:15:44
(UTC+00:00)

CUTE-I - Pass Details

Date: 06 December 2023
Orbit: 807 x 822 km, 98.7° (Epoch: 23 February)

Event Time Altitude Azimuth Distance (km) Brightness Sun altitude
Rises 17:57:55 0° 205° (SSW) 3,314 ? -23.6°
Reaches altitude 10° 18:00:51 10° 222° (SW) 2,390 ? -24.1°
Maximum altitude 18:04:41 20° 269° (W) 1,795 ? -24.8°
Drops below altitude 10° 18:08:33 10° 316° (NW) 2,410 ? -25.5°
Sets 18:11:33 0° 333° (NNW) 3,351 ? -26.0°
